OCO 2

Last updated on Fri Sep 11 2026 00:03:31 GMT+0000 (Coordinated Universal Time)

1 40059U 14035A 26253.57976250 .00000243 00000+0 64106-4 0 9999 2 40059 98.2060 193.5877 0001683 81.3724 278.7665 14.57086993648481
UTC large
Height (km)
Speed (km/s)
/
Latitude / Longitude
Inclination (degrees)
Orbital Period (minutes)
Azimuth
Elevation
Range (km)
Doppler Factor

Next 0 passes for location: London (51.5072 / 0.1276)

No passes found over London.
OCO 2